カタログに戻る

STARLINK-3661

運用中通信VLEO
NORAD 52129·PAYLOAD·🇺🇸 United States

打ち上げ Mar 19, 2022 から Cape Canaveral Space Force Station

Loading…

次のパス (今後24時間)

TLE

最新Source: CelesTrak SupGP

元期: Sep 14, 2026, 21:18 UTC

1 52129C 22029AT  26257.88798611  .00008893  00000+0  48914-3 0  2577
2 52129  53.1605 297.9038 0001595  71.4533   3.9528 15.13561555    17

AllMySatでSTARLINK-3661をリアルタイム追跡

Download on the App Store